CW6344 Weather Reports


time (UTC)temp
F
wind
direction
speed
knots
gust
knots
rain 1hr
in
rain 24hr
in
rain mn
in
humidity
%
barometer
mb
20260502192353 58 55 0.0 0.0 0.00 0.00 0.00 56 1011.6
20260502191353 59 331 0.0 1.7 0.00 0.00 0.00 55 1011.5
20260502190423 58 36 0.9 0.9 0.00 0.00 0.00 56 1011.8
20260502185353 58 264 0.9 0.9 0.00 0.00 0.00 54 1012.0
20260502184423 59 298 0.0 5.2 0.00 0.00 0.00 53 1012.2
20260502183353 59 69 0.0 1.7 0.00 0.00 0.00 53 1012.3
20260502182353 58 309 0.0 1.7 0.00 0.00 0.00 51 1012.6
20260502181353 58 106 1.7 1.7 0.00 0.00 0.00 50 1012.8
20260502180353 59 360 0.9 1.7 0.00 0.00 0.00 44 1012.8
20260502170423 56 42 0.0 0.9 0.00 0.00 0.00 56 1013.3
20260502163353 56 308 0.0 0.9 0.00 0.00 0.00 61 1013.6
20260502162423 56 279 0.0 0.0 0.00 0.00 0.00 62 1013.3
20260502161353 56 267 0.9 2.6 0.00 0.00 0.00 62 1013.6
20260502160353 56 15 0.0 0.0 0.00 0.00 0.00 64 1013.6
20260502151353 56 82 0.0 1.7 0.00 0.00 0.00 65 1014.1
20260502150353 55 15 0.0 0.9 0.00 0.00 0.00 64 1014.0
20260502130353 53 287 0.9 3.5 0.00 0.00 0.00 64 1013.5
20260502123353 52 348 0.9 2.6 0.00 0.00 0.00 67 1013.3
20260502122353 52 279 1.7 3.5 0.00 0.00 0.00 71 1013.4
20260502120353 53 344 0.0 0.9 0.00 0.00 0.00 74 1013.4
20260502115353 53 263 0.0 1.7 0.00 0.00 0.00 74 1013.4
20260502114353 53 44 0.0 0.9 0.00 0.00 0.00 73 1013.5
20260502113353 53 17 0.0 0.0 0.00 0.00 0.00 74 1013.5
20260502112353 53 230 0.9 1.7 0.00 0.00 0.00 72 1013.5
20260502111353 53 301 0.0 0.0 0.00 0.00 0.00 73 1013.4
20260502110353 53 360 0.0 2.6 0.00 0.00 0.00 73 1013.1
20260502105353 53 306 0.0 0.9 0.00 0.00 0.00 73 1013.1
20260502104353 53 304 0.9 0.9 0.00 0.00 0.00 74 1013.1
20260502102353 53 309 0.0 0.9 0.00 0.00 0.00 74 1012.9
20260502101353 54 77 0.0 1.7 0.00 0.00 0.00 73 1012.9
20260502100353 54 242 0.0 1.7 0.00 0.00 0.00 74 1012.8
20260502091353 53 330 0.0 0.9 0.00 0.00 0.00 79 1012.3
20260502090353 53 38 0.0 1.7 0.00 0.00 0.00 80 1012.3
20260502071353 50 273 0.0 0.0 0.00 0.00 0.00 87 1011.6
20260502070353 51 273 0.0 0.0 0.00 0.00 0.00 87 1011.5
20260502065353 51 273 0.0 0.0 0.00 0.00 0.00 86 1011.6
20260502064423 51 273 0.0 0.0 0.00 0.00 0.00 85 1011.6
20260502063353 52 273 0.0 0.0 0.00 0.00 0.00 85 1011.6
20260502060353 53 273 0.0 0.0 0.00 0.00 0.00 84 1012.2
20260502055353 53 273 0.0 0.9 0.00 0.00 0.00 84 1012.5
20260502054353 53 273 0.0 0.0 0.00 0.00 0.00 84 1012.5
20260502053353 54 273 0.0 0.9 0.00 0.00 0.00 83 1012.5
20260502052353 54 273 0.9 0.9 0.00 0.00 0.00 82 1012.3
20260502051353 54 273 0.0 0.0 0.00 0.00 0.00 82 1012.1
20260502050353 54 236 0.0 0.0 0.00 0.00 0.00 82 1012.0
20260502045353 54 236 0.9 1.7 0.00 0.00 0.00 82 1012.0
20260502044353 54 223 0.0 0.0 0.00 0.00 0.00 82 1012.0
20260502043354 54 76 0.0 0.0 0.00 0.00 0.00 82 1012.0
20260502042354 54 48 0.0 0.0 0.00 0.00 0.00 82 1012.0
20260502041353 54 48 0.0 0.0 0.00 0.00 0.00 81 1012.1
20260502040353 54 360 0.0 0.0 0.00 0.00 0.00 81 1012.0
20260502035353 54 360 0.0 0.0 0.00 0.00 0.00 81 1012.0
20260502034354 54 360 0.0 0.0 0.00 0.00 0.00 81 1012.1
20260502033354 54 360 0.0 0.0 0.00 0.00 0.00 80 1012.0
20260502032354 54 5 0.0 0.0 0.00 0.00 0.00 79 1012.0
20260502031354 54 90 0.0 0.0 0.00 0.00 0.00 79 1011.9
20260502030354 54 93 0.0 0.0 0.00 0.00 0.00 79 1011.7
20260502025424 54 93 0.0 0.0 0.00 0.00 0.00 78 1011.7
20260502024354 54 93 0.0 0.0 0.00 0.00 0.00 77 1011.8
20260502023354 54 93 0.0 0.0 0.00 0.00 0.00 77 1012.0
20260502022354 54 93 0.0 0.0 0.00 0.00 0.00 77 1012.0
20260502021424 55 93 0.0 0.0 0.00 0.00 0.00 77 1012.1
20260502020354 55 120 0.0 0.0 0.00 0.00 0.00 77 1012.1
20260502015354 55 120 0.0 0.0 0.00 0.00 0.00 76 1012.1
20260502014354 55 123 0.0 0.0 0.00 0.00 0.00 76 1012.2
20260502013354 55 82 0.0 0.0 0.00 0.00 0.00 75 1012.0
20260502012354 55 82 0.0 0.0 0.00 0.00 0.00 74 1011.9
20260502011354 56 82 0.0 0.0 0.00 0.00 0.00 73 1011.7
20260502010354 56 82 0.0 0.0 0.00 0.00 0.00 72 1011.4
20260502005354 57 82 0.0 0.0 0.00 0.00 0.00 69 1011.3
20260502004354 57 82 0.9 0.9 0.00 0.00 0.00 68 1011.2
20260502003354 57 97 0.9 0.9 0.00 0.00 0.00 66 1011.2
20260502002355 57 136 0.0 0.9 0.00 0.00 0.00 65 1011.2
20260502001354 57 279 0.0 0.0 0.00 0.00 0.00 66 1011.3
20260502000354 57 279 0.0 0.0 0.00 0.00 0.00 64 1011.3
20260501235354 58 279 0.0 0.0 0.00 0.00 0.00 63 1011.2
20260501234354 59 279 0.0 0.0 0.00 0.00 0.00 60 1011.0
20260501233354 59 263 0.0 0.0 0.00 0.00 0.00 60 1011.0
20260501232354 60 263 0.0 0.0 0.00 0.00 0.00 59 1010.9
20260501231424 60 250 0.0 0.0 0.00 0.00 0.00 59 1010.9
20260501230354 61 131 0.0 0.9 0.00 0.00 0.00 57 1010.8
20260501225354 61 128 0.0 0.9 0.00 0.00 0.00 58 1010.8
20260501224354 61 96 0.9 0.9 0.00 0.00 0.00 58 1010.8
20260501223424 62 53 0.0 0.9 0.00 0.00 0.00 55 1010.9
20260501222354 62 34 0.0 0.9 0.00 0.00 0.00 55 1010.9
20260501221354 62 261 0.9 1.7 0.00 0.00 0.00 54 1011.1
20260501220354 62 69 0.0 0.0 0.00 0.00 0.00 53 1011.3
20260501215354 62 49 0.0 1.7 0.00 0.00 0.00 49 1011.2
20260501214354 63 80 0.9 0.9 0.00 0.00 0.00 48 1011.3
20260501213354 63 119 0.9 5.2 0.00 0.00 0.00 47 1011.3
20260501212354 64 67 0.9 2.6 0.00 0.00 0.00 45 1011.3
20260501211354 64 68 0.0 0.9 0.00 0.00 0.00 52 1011.3
20260501205424 66 43 0.9 0.9 0.00 0.00 0.00 47 1011.3
20260501203354 64 75 0.0 0.9 0.00 0.00 0.00 49 1011.7
20260501201354 65 110 0.0 1.7 0.00 0.00 0.00 45 1012.0
20260501200354 66 296 0.0 0.9 0.00 0.00 0.00 44 1012.2
20260501195354 65 86 0.0 1.7 0.00 0.00 0.00 45 1012.4
20260501193354 65 131 0.0 0.9 0.00 0.00 0.00 45 1012.6